Weather History for KCWF - October, 2011

Change the Weather History Date:

Tuesday, October 18, 2011

  Actual Average Record
Temperature  
Mean Temperature 60 °F -  
Max Temperature 71 °F 77 °F 89 °F (2007)
Min Temperature 48 °F 61 °F 46 °F (2001)
Degree Days  
Heating Degree Days 6    
Growing Degree Days 10 (Base 50)    
Moisture  
Dew Point 57 °F    
Average Humidity 82    
Maximum Humidity 94    
Minimum Humidity 55    
Precipitation  
Precipitation 0.00 in - - ()
Sea Level Pressure  
Sea Level Pressure 29.82 in    
Wind  
Wind Speed 7 mph (NW)    
Max Wind Speed 23 mph    
Max Gust Speed 34 mph    
Visibility 9 miles    
Events      
Averages and records for this station are not official NWS values.
T = Trace of Precipitation, MM = Missing Value Source: NWS Daily Summary

Daily Weather History Graph

Daily Weather History Graph

Search for Another Location

Airport or City:

Trip Planner

Search our weather history database for the weather conditions in past years. The results will help you decide how hot, cold, wet, or windy it might be!

Date:

Astronomy

Oct. 18, 2011 Rise Set
Actual Time 7:16 AM CDT 6:38 PM CDT
Civil Twilight 6:52 AM CDT 7:02 PM CDT
Nautical Twilight 6:24 AM CDT 7:30 PM CDT
Astronomical Twilight 5:56 AM CDT 7:58 PM CDT
Moon 11:34 PM CDT (10/18) 12:52 PM CDT (10/18)
Length of Visible Light 12h 10m
Length of Day
11h 22m
Waning Gibbous, 64% of the Moon is Illuminated
Oct 18
Waning Gibbous
Oct 19
Last Quarter
Oct 26
New
Nov 2
First Quarter
Nov 10
Full

Hourly Weather History & Observations

Time (CDT) Temp. Dew Point Humidity Pressure Visibility Wind Dir Wind Speed Gust Speed Precip Events Conditions
12:15 AM 69.8 °F 68.0 °F 94% 29.76 in 10.0 mi SE 9.2 mph - N/A   Clear
12:35 AM 69.8 °F 66.2 °F 88% 29.76 in 10.0 mi SE 6.9 mph - N/A   Clear
1:15 AM 68.0 °F 64.4 °F 88% 29.75 in 10.0 mi SE 4.6 mph - N/A   Clear
1:35 AM 68.0 °F 64.4 °F 88% 29.74 in 10.0 mi SE 6.9 mph - N/A   Clear
1:55 AM 68.0 °F 64.4 °F 88% 29.74 in 10.0 mi SSE 4.6 mph - N/A   Clear
2:15 AM 66.2 °F 64.4 °F 94% 29.74 in 7.0 mi SSE 4.6 mph - N/A   Clear
2:35 AM 64.4 °F 62.6 °F 94% 29.73 in 7.0 mi SSE 5.8 mph - N/A   Clear
2:55 AM 62.6 °F 60.8 °F 94% 29.72 in 4.0 mi SE 5.8 mph - N/A   Clear
3:35 AM 68.0 °F 66.2 °F 94% 29.79 in 10.0 mi WNW 8.1 mph - N/A   Mostly Cloudy
3:55 AM 68.0 °F 64.4 °F 88% 29.77 in 10.0 mi Calm Calm - N/A   Scattered Clouds
4:15 AM 68.0 °F 64.4 °F 88% 29.77 in 10.0 mi Calm Calm - N/A   Scattered Clouds
4:35 AM 68.0 °F 64.4 °F 88% 29.75 in 7.0 mi Calm Calm - N/A   Clear
4:55 AM 66.2 °F 64.4 °F 94% 29.72 in 4.0 mi East 3.5 mph - N/A   Clear
5:15 AM 66.2 °F 64.4 °F 94% 29.74 in 5.0 mi Calm Calm - N/A   Scattered Clouds
5:35 AM 68.0 °F 64.4 °F 88% 29.74 in 7.0 mi Calm Calm - N/A   Mostly Cloudy
6:00 AM 68.0 °F 64.4 °F 88% 29.75 in 10.0 mi WNW 3.5 mph - N/A   Overcast
6:55 AM 68.0 °F 66.2 °F 94% 29.76 in 7.0 mi Calm Calm - N/A   Overcast
7:50 AM 69.8 °F 66.2 °F 88% 29.74 in 4.0 mi Calm Calm - N/A   Overcast
8:55 AM 71.6 °F 69.8 °F 94% 29.76 in 7.0 mi NW 6.9 mph - N/A   Overcast
9:53 AM 68.0 °F 64.4 °F 88% 29.80 in 10.0 mi NW 13.8 mph 21.9 mph N/A   Overcast
10:50 AM 66.2 °F 62.6 °F 88% 29.80 in 10.0 mi WNW 17.3 mph 21.9 mph N/A   Overcast
11:50 AM 62.6 °F 57.2 °F 82% 29.81 in 10.0 mi WNW 18.4 mph 25.3 mph N/A   Overcast
12:50 PM 60.8 °F 53.6 °F 77% 29.81 in 10.0 mi NW 23.0 mph 27.6 mph N/A   Overcast
1:50 PM 62.6 °F 51.8 °F 68% 29.81 in 10.0 mi NNW 23.0 mph 27.6 mph N/A   Overcast
2:50 PM 60.8 °F 48.2 °F 63% 29.83 in 10.0 mi NW 20.7 mph 32.2 mph N/A   Overcast
3:50 PM 62.6 °F 48.2 °F 59% 29.82 in 10.0 mi NNW 21.9 mph 29.9 mph N/A   Mostly Cloudy
4:50 PM 62.6 °F 48.2 °F 59% 29.83 in 10.0 mi NNW 21.9 mph 34.5 mph N/A   Clear
5:50 PM 60.8 °F 46.4 °F 59% 29.86 in 10.0 mi NNW 18.4 mph 27.6 mph N/A   Scattered Clouds
6:50 PM 60.8 °F 44.6 °F 55% 29.89 in 10.0 mi NNW 11.5 mph 17.3 mph N/A   Mostly Cloudy
8:50 PM 55.4 °F 44.6 °F 67% 29.96 in 10.0 mi NNW 5.8 mph - N/A   Clear
9:50 PM 53.6 °F 44.6 °F 72% 29.96 in 10.0 mi NNW 3.5 mph - N/A   Clear
10:15 PM 51.8 °F 44.6 °F 76% 29.98 in 10.0 mi NNW 3.5 mph - N/A   Clear
10:35 PM 51.8 °F 44.6 °F 76% 29.99 in 10.0 mi NW 4.6 mph - N/A   Clear
10:55 PM 51.8 °F 44.6 °F 76% 29.98 in 10.0 mi Calm Calm - N/A   Clear
11:15 PM 51.8 °F 44.6 °F 76% 29.98 in 10.0 mi Calm Calm - N/A   Clear
11:35 PM 48.2 °F 44.6 °F 87% 29.97 in 10.0 mi Calm Calm - N/A   Clear
11:55 PM 48.2 °F 44.6 °F 87% 29.97 in 10.0 mi Calm Calm - N/A   Clear